EW6308 Weather Reports


Display with metric or nautical units.
time (UTC)temp
F
wind
direction
speed
MPH
gust
MPH
rain 1hr
in
rain 24hr
in
rain mn
in
humidity
%
barometer
mb
20200219094003 49 40 6.0 13.0 0.00 0.00 0.00 82 1023.2
20200219093503 49 39 7.0 12.0 0.00 0.00 0.00 83 1022.9
20200219093003 49 38 7.0 14.0 0.00 0.00 0.00 83 1022.8
20200219092503 49 37 6.0 14.0 0.00 0.00 0.00 83 1022.7
20200219092003 49 39 6.0 13.0 0.00 0.00 0.00 83 1022.8
20200219091502 49 42 6.0 13.0 0.00 0.00 0.00 83 1022.9
20200219091002 49 37 6.0 12.0 0.00 0.00 0.00 83 1023.1
20200219090503 49 34 6.0 12.0 0.00 0.00 0.00 83 1023.1
20200219090002 49 33 6.0 15.0 0.00 0.00 0.00 83 1023.0
20200219085504 49 33 5.0 15.0 0.00 0.00 0.00 83 1023.1
20200219085004 49 31 5.0 10.0 0.00 0.00 0.00 84 1023.1
20200219084503 49 40 6.0 11.0 0.00 0.00 0.00 84 1022.8
20200219084003 50 47 7.0 12.0 0.00 0.00 0.00 83 1022.8
20200219083503 50 40 8.0 16.0 0.00 0.00 0.00 83 1022.8
20200219083003 50 34 7.0 16.0 0.00 0.00 0.00 83 1023.1
20200219082502 50 31 6.0 14.0 0.00 0.00 0.00 83 1023.0
20200219082003 50 35 6.0 12.0 0.00 0.00 0.00 83 1023.0
20200219081502 50 45 6.0 13.0 0.00 0.00 0.00 83 1022.7
20200219081002 50 45 7.0 13.0 0.00 0.00 0.00 82 1022.8
20200219080504 50 46 6.0 17.0 0.00 0.00 0.00 82 1022.9
20200219080003 50 49 6.0 17.0 0.00 0.00 0.00 82 1022.8
20200219075503 50 50 5.0 12.0 0.00 0.00 0.00 81 1022.6
20200219075003 50 48 6.0 12.0 0.00 0.00 0.00 81 1022.8
20200219074503 50 44 6.0 14.0 0.00 0.00 0.00 81 1023.0
20200219074003 50 43 5.0 14.0 0.00 0.00 0.00 81 1022.9
20200219073503 50 39 5.0 14.0 0.00 0.00 0.00 81 1023.0
20200219073003 50 40 5.0 14.0 0.00 0.00 0.00 80 1023.2
20200219072503 50 41 6.0 11.0 0.00 0.00 0.00 81 1023.2
20200219072003 50 42 5.0 13.0 0.00 0.00 0.00 80 1023.1
20200219071503 50 42 5.0 13.0 0.00 0.00 0.00 80 1023.1
20200219071002 50 37 5.0 11.0 0.00 0.00 0.00 80 1022.9
20200219070502 50 37 5.0 11.0 0.00 0.00 0.00 80 1023.0
20200219070002 50 38 5.0 10.0 0.00 0.00 0.00 80 1023.0
20200219065503 50 38 6.0 14.0 0.00 0.00 0.00 80 1023.0
20200219065003 50 44 6.0 15.0 0.00 0.00 0.00 80 1022.9
20200219064503 50 43 6.0 15.0 0.00 0.00 0.00 80 1023.0
20200219064003 50 37 7.0 14.0 0.00 0.00 0.00 80 1023.1
20200219063503 50 37 7.0 14.0 0.00 0.00 0.00 80 1023.1
20200219063003 50 39 7.0 14.0 0.00 0.00 0.00 80 1023.0
20200219062502 50 39 6.0 14.0 0.00 0.00 0.00 80 1022.9
20200219062003 50 40 6.0 13.0 0.00 0.00 0.00 80 1022.9
20200219061503 50 43 5.0 13.0 0.00 0.00 0.00 80 1022.9
20200219061003 50 39 5.0 11.0 0.00 0.00 0.00 80 1022.8
20200219060503 50 41 6.0 9.0 0.00 0.00 0.00 81 1022.9
20200219060006 50 46 6.0 13.0 0.00 0.00 0.00 80 1023.0
20200219055503 50 41 6.0 13.0 0.00 0.00 0.00 80 1023.0
20200219055003 50 39 7.0 12.0 0.00 0.00 0.00 81 1022.9
20200219054503 50 40 7.0 12.0 0.00 0.00 0.00 81 1022.7
20200219054003 50 37 6.0 14.0 0.00 0.00 0.00 82 1022.6
20200219053503 50 38 6.0 14.0 0.00 0.00 0.00 82 1022.7
20200219053003 50 36 6.0 13.0 0.00 0.00 0.00 82 1022.8
20200219052503 50 28 6.0 13.0 0.00 0.00 0.00 82 1023.0
20200219052003 50 25 6.0 13.0 0.00 0.00 0.00 82 1022.7
20200219051504 50 25 6.0 9.0 0.00 0.00 0.00 82 1022.8
20200219051003 50 34 6.0 12.0 0.00 0.00 0.00 82 1022.8
20200219050504 50 40 6.0 13.0 0.00 0.00 0.00 82 1022.4
20200219050003 50 33 7.0 14.0 0.00 0.00 0.00 81 1022.4
20200219045503 50 34 7.0 14.0 0.00 0.00 0.00 81 1022.3
20200219045003 50 37 7.0 13.0 0.00 0.00 0.00 81 1022.2
20200219044504 50 36 6.0 13.0 0.00 0.00 0.00 80 1022.3
20200219044004 50 30 6.0 10.0 0.00 0.00 0.00 81 1022.7
20200219043503 50 24 6.0 11.0 0.00 0.00 0.00 81 1022.8
20200219043003 50 25 5.0 11.0 0.00 0.00 0.00 82 1022.9
20200219042503 50 26 5.0 10.0 0.00 0.00 0.00 83 1022.9
20200219042003 50 30 6.0 9.0 0.00 0.00 0.00 84 1022.8
20200219041503 50 28 6.0 9.0 0.00 0.00 0.00 84 1022.7
20200219041003 50 22 6.0 12.0 0.00 0.00 0.00 84 1022.9
20200219040503 50 26 6.0 12.0 0.00 0.00 0.00 84 1022.8
20200219040003 50 30 7.0 11.0 0.00 0.00 0.00 83 1022.7
20200219035502 50 30 7.0 11.0 0.00 0.00 0.00 82 1022.3
20200219035004 51 29 6.0 13.0 0.00 0.00 0.00 80 1022.1
20200219034504 51 29 7.0 13.0 0.00 0.00 0.00 78 1022.4
20200219034003 51 29 6.0 17.0 0.00 0.00 0.00 77 1022.5
20200219033503 52 31 6.0 17.0 0.00 0.00 0.00 77 1022.4
20200219033003 52 37 6.0 12.0 0.00 0.00 0.00 76 1022.3
20200219032504 52 33 6.0 18.0 0.00 0.00 0.00 76 1022.3
20200219032004 52 28 7.0 18.0 0.00 0.00 0.00 76 1022.4
20200219031504 52 27 8.0 17.0 0.00 0.00 0.00 75 1022.3
20200219031004 52 30 7.0 19.0 0.00 0.00 0.00 75 1022.2
20200219030503 52 31 8.0 19.0 0.00 0.00 0.00 75 1022.1
20200219030003 52 26 8.0 16.0 0.00 0.00 0.00 75 1022.0
20200219025503 52 29 8.0 16.0 0.00 0.00 0.00 74 1021.8
20200219025003 52 34 8.0 16.0 0.00 0.00 0.00 73 1021.7
20200219024503 52 31 8.0 17.0 0.00 0.00 0.00 73 1021.8
20200219024011 52 28 7.0 17.0 0.00 0.00 0.00 73 1021.6
20200219023503 52 30 7.0 14.0 0.00 0.00 0.00 73 1021.5
20200219023003 52 31 7.0 13.0 0.00 0.00 0.00 73 1021.5
20200219022503 52 32 7.0 13.0 0.00 0.00 0.00 73 1021.4
20200219022003 52 33 8.0 13.0 0.00 0.00 0.00 74 1021.3
20200219021503 52 31 8.0 14.0 0.00 0.00 0.00 74 1021.1
20200219021024 52 32 7.0 15.0 0.00 0.00 0.00 74 1020.8
20200219020503 52 35 6.0 15.0 0.00 0.00 0.00 75 1020.6
20200219020003 51 31 6.0 13.0 0.00 0.00 0.00 76 1020.6
20200219015503 51 26 6.0 12.0 0.00 0.00 0.00 76 1020.6
20200219015003 51 23 6.0 11.0 0.00 0.00 0.00 77 1020.5
20200219014524 51 22 6.0 11.0 0.00 0.00 0.00 77 1020.5
20200219014002 51 20 6.0 15.0 0.00 0.00 0.00 77 1020.6
20200219013525 51 18 6.0 15.0 0.00 0.00 0.00 77 1020.5
20200219013003 51 16 6.0 11.0 0.00 0.00 0.00 78 1020.6
20200219012503 51 14 6.0 11.0 0.00 0.00 0.00 79 1020.4
20200219012003 51 12 6.0 9.0 0.00 0.00 0.00 79 1020.4
20200219011503 51 12 5.0 12.0 0.00 0.00 0.00 79 1020.4
20200219011003 51 16 5.0 12.0 0.00 0.00 0.00 80 1020.4
20200219010503 51 23 5.0 10.0 0.00 0.00 0.00 81 1020.4
20200219010003 51 22 6.0 13.0 0.00 0.00 0.00 81 1020.2
20200219005503 51 21 6.0 13.0 0.00 0.00 0.00 80 1019.9
20200219005150 51 22 7.0 11.0 0.00 0.00 0.00 80 1019.8
20200219004503 51 19 7.0 12.0 0.00 0.00 0.00 79 1019.9
20200219004003 51 20 7.0 12.0 0.00 0.00 0.00 79 1019.8
20200219003503 51 27 7.0 13.0 0.00 0.00 0.00 78 1019.6
20200219003003 51 25 7.0 13.0 0.00 0.00 0.00 79 1019.7
20200219002503 52 20 7.0 13.0 0.00 0.00 0.00 78 1019.6
20200219002003 52 19 7.0 11.0 0.00 0.00 0.00 78 1019.6
20200219001503 52 21 8.0 14.0 0.00 0.00 0.00 77 1019.6
20200219001002 52 22 8.0 14.0 0.00 0.00 0.00 77 1019.6
20200219000505 52 19 8.0 15.0 0.00 0.00 0.00 77 1019.6
20200219000003 52 18 7.0 17.0 0.00 0.00 0.00 76 1019.6
20200218235503 52 18 7.0 17.0 0.00 0.00 0.00 74 1019.7
20200218235003 52 16 7.0 14.0 0.00 0.00 0.00 74 1019.7
20200218234503 53 13 7.0 14.0 0.00 0.00 0.00 73 1019.7
20200218234003 53 12 7.0 12.0 0.00 0.00 0.00 74 1019.7
20200218233523 52 17 8.0 13.0 0.00 0.00 0.00 74 1019.6
20200218233003 52 22 7.0 14.0 0.00 0.00 0.00 74 1019.3
20200218232503 52 22 7.0 14.0 0.00 0.00 0.00 74 1019.1
20200218232003 52 26 7.0 15.0 0.00 0.00 0.00 75 1018.9
20200218231503 52 22 7.0 15.0 0.00 0.00 0.00 75 1018.9
20200218231024 52 14 7.0 14.0 0.00 0.00 0.00 76 1019.0
20200218230502 52 18 7.0 13.0 0.00 0.00 0.00 75 1018.8
20200218230024 52 18 7.0 13.0 0.00 0.00 0.00 75 1018.9
20200218225503 52 9 7.0 13.0 0.00 0.00 0.00 74 1018.7
20200218225023 52 9 7.0 14.0 0.00 0.00 0.00 74 1018.6
20200218224524 52 15 8.0 14.0 0.00 0.00 0.00 74 1018.5
20200218224003 52 15 7.0 14.0 0.00 0.00 0.00 74 1018.6
20200218223524 52 13 7.0 12.0 0.00 0.00 0.00 74 1018.6
20200218223003 52 15 7.0 12.0 0.00 0.00 0.00 74 1018.4
20200218222503 52 15 8.0 14.0 0.00 0.00 0.00 74 1018.3
20200218222004 52 14 8.0 16.0 0.00 0.00 0.00 74 1018.1
20200218221524 52 17 7.0 16.0 0.00 0.00 0.00 74 1018.2
20200218221003 52 15 7.0 14.0 0.00 0.00 0.00 74 1018.3
20200218220503 52 16 7.0 11.0 0.00 0.00 0.00 76 1018.3
20200218220027 52 19 7.0 11.0 0.00 0.00 0.00 75 1018.2
20200218215524 52 18 8.0 15.0 0.00 0.00 0.00 76 1018.3
20200218215003 52 11 8.0 15.0 0.00 0.00 0.00 76 1018.3
20200218214503 52 6 8.0 14.0 0.00 0.00 0.00 77 1018.4
20200218214003 52 6 8.0 14.0 0.00 0.00 0.00 77 1018.4
20200218213503 52 5 6.0 14.0 0.00 0.00 0.00 77 1018.2
20200218213003 52 360 6.0 14.0 0.00 0.00 0.00 77 1018.2
20200218212503 52 355 6.0 12.0 0.00 0.00 0.00 75 1018.3
20200218212003 52 2 6.0 14.0 0.00 0.00 0.00 74 1017.9
20200218211503 52 358 7.0 14.0 0.00 0.00 0.00 73 1017.6
20200218211003 53 358 8.0 13.0 0.00 0.00 0.00 73 1017.7
20200218210503 53 6 7.0 16.0 0.00 0.00 0.00 72 1017.6
20200218210003 53 4 7.0 16.0 0.00 0.00 0.00 72 1017.2
20200218205503 53 8 7.0 14.0 0.00 0.00 0.00 73 1017.6
20200218205003 53 11 7.0 13.0 0.00 0.00 0.00 74 1017.6
20200218204502 53 6 7.0 13.0 0.00 0.00 0.00 73 1017.6
20200218204003 53 9 7.0 14.0 0.00 0.00 0.00 74 1017.6
20200218203503 53 15 7.0 14.0 0.00 0.00 0.00 74 1017.4
20200218203003 53 18 7.0 14.0 0.00 0.00 0.00 74 1017.5
20200218202503 53 19 8.0 12.0 0.00 0.00 0.00 75 1017.6
20200218202003 53 16 9.0 14.0 0.00 0.00 0.00 75 1017.6
20200218201502 53 15 10.0 16.0 0.00 0.00 0.00 75 1017.4
20200218201002 53 16 9.0 19.0 0.00 0.00 0.00 75 1017.6
20200218200504 54 10 8.0 19.0 0.00 0.00 0.00 75 1017.5
20200218200004 54 2 8.0 15.0 0.00 0.00 0.00 77 1017.4
20200218195503 54 3 7.0 15.0 0.00 0.00 0.00 78 1017.2
20200218195004 54 2 7.0 14.0 0.00 0.00 0.00 79 1017.2
20200218193503 53 11 8.0 13.0 0.00 0.00 0.00 81 1016.7
20200218193003 53 359 7.0 13.0 0.00 0.00 0.00 83 1017.0
20200218192503 54 347 6.0 13.0 0.00 0.00 0.00 85 1016.8
20200218192004 54 348 5.0 12.0 0.00 0.00 0.00 87 1017.1
20200218191504 54 352 5.0 8.0 0.00 0.00 0.00 88 1016.9
20200218191003 54 357 6.0 10.0 0.00 0.00 0.00 88 1017.3
20200218190503 54 10 7.0 12.0 0.00 0.00 0.00 88 1017.0
20200218190003 54 17 7.0 13.0 0.00 0.00 0.00 88 1016.9
20200218185503 54 13 8.0 13.0 0.00 0.00 0.00 89 1016.9
20200218185003 54 11 8.0 17.0 0.00 0.00 0.00 90 1016.9
20200218184503 54 12 7.0 17.0 0.00 0.00 0.00 91 1016.8
20200218184003 54 357 7.0 15.0 0.00 0.00 0.00 91 1017.0
20200218183503 55 351 8.0 17.0 0.00 0.00 0.00 90 1017.1
20200218183003 55 352 8.0 17.0 0.00 0.00 0.00 91 1017.0
20200218182504 56 345 7.0 16.0 0.00 0.00 0.00 90 1017.1
20200218182003 57 346 6.0 14.0 0.00 0.00 0.00 90 1017.0
20200218181503 58 1 6.0 13.0 0.00 0.00 0.00 89 1016.8
20200218181003 59 13 7.0 13.0 0.00 0.00 0.00 91 1016.9
20200218180503 59 15 7.0 13.0 0.00 0.00 0.00 91 1016.8
20200218180003 59 12 6.0 13.0 0.00 0.00 0.00 91 1016.8
20200218175503 59 11 6.0 12.0 0.00 0.00 0.00 91 1016.8
20200218175003 60 1 6.0 12.0 0.00 0.00 0.00 91 1016.7
20200218174503 60 355 6.0 11.0 0.00 0.00 0.00 91 1016.9
20200218174003 60 359 6.0 13.0 0.00 0.00 0.00 91 1016.7
20200218173503 61 358 6.0 13.0 0.00 0.00 0.00 91 1016.6
20200218173003 60 353 6.0 12.0 0.00 0.00 0.00 91 1016.4
20200218172503 60 347 5.0 12.0 0.00 0.00 0.00 90 1016.9
20200218172003 61 347 5.0 10.0 0.00 0.00 0.00 90 1016.8
20200218171503 60 347 4.0 9.0 0.00 0.00 0.00 91 1016.5
20200218171003 60 348 4.0 9.0 0.00 0.00 0.00 91 1016.6
20200218170503 60 356 4.0 9.0 0.00 0.00 0.00 91 1016.4
20200218170003 60 350 4.0 6.0 0.00 0.00 0.00 92 1016.4
20200218165503 59 342 4.0 8.0 0.00 0.00 0.00 92 1016.2
20200218165003 59 337 4.0 8.0 0.00 0.00 0.00 92 1016.3
20200218164503 59 336 4.0 8.0 0.00 0.00 0.00 92 1016.4
20200218164003 59 341 5.0 7.0 0.00 0.00 0.00 91 1016.2
20200218163503 59 335 5.0 10.0 0.00 0.00 0.00 90 1016.3
20200218163003 60 334 4.0 10.0 0.00 0.00 0.00 89 1016.3
20200218162503 60 340 4.0 7.0 0.00 0.00 0.00 87 1016.4
20200218162004 60 343 4.0 8.0 0.00 0.00 0.00 86 1016.1
20200218161503 60 347 4.0 8.0 0.00 0.00 0.00 86 1016.1
20200218161003 60 352 5.0 9.0 0.00 0.00 0.00 85 1015.9
20200218160503 60 348 5.0 9.0 0.00 0.00 0.00 84 1015.6
20200218160003 61 350 5.0 12.0 0.00 0.00 0.00 84 1015.7
20200218155504 61 360 4.0 12.0 0.00 0.00 0.00 84 1015.5
20200218154525 62 343 3.0 7.0 0.00 0.00 0.00 84 1015.5
20200218154024 62 339 4.0 7.0 0.00 0.00 0.00 84 1015.1
20200218153504 62 337 4.0 7.0 0.00 0.00 0.00 83 1015.0
20200218153003 62 336 3.0 8.0 0.00 0.00 0.00 84 1015.0
20200218152503 63 337 3.0 8.0 0.00 0.00 0.00 83 1015.1
20200218152004 63 346 3.0 7.0 0.00 0.00 0.00 85 1014.9
20200218151504 64 346 2.0 8.0 0.00 0.00 0.00 86 1014.8
20200218151003 64 340 1.0 8.0 0.00 0.00 0.00 88 1014.5
20200218150504 65 325 1.0 4.0 0.00 0.00 0.00 92 1014.4
20200218150024 65 327 0.0 3.0 0.00 0.00 0.00 92 1014.1
20200218145503 66 333 1.0 1.0 0.00 0.00 0.00 95 1014.0
20200218145003 66 335 1.0 4.0 0.00 0.00 0.00 94 1013.9
20200218144503 66 340 0.0 4.0 0.00 0.00 0.00 95 1014.0
20200218144003 66 0 0.0 2.0 0.00 0.00 0.00 96 1013.9
20200218143503 66 0 0.0 0.0 0.00 0.00 0.00 95 1013.9
20200218143003 66 0 0.0 1.0 0.00 0.00 0.00 96 1013.9
20200218142503 66 0 0.0 1.0 0.00 0.00 0.00 96 1013.7
20200218142003 66 0 0.0 1.0 0.00 0.00 0.00 96 1013.7
20200218141504 66 0 0.0 1.0 0.00 0.00 0.00 96 1013.7
20200218141003 66 0 0.0 1.0 0.00 0.00 0.00 96 1013.3
20200218140503 66 0 0.0 1.0 0.00 0.00 0.00 96 1013.5
20200218140003 66 0 0.0 1.0 0.00 0.00 0.00 96 1013.2
20200218135503 66 0 0.0 0.0 0.00 0.00 0.00 96 1013.3
20200218135004 66 0 0.0 0.0 0.00 0.00 0.00 96 1013.0
20200218134003 66 140 1.0 2.0 0.00 0.00 0.00 96 1012.8
20200218133503 66 141 1.0 4.0 0.00 0.00 0.00 96 1012.6
20200218133003 66 142 1.0 4.0 0.00 0.00 0.00 96 1012.1
20200218132503 66 142 0.0 3.0 0.00 0.00 0.00 96 1012.1
20200218132004 66 133 1.0 2.0 0.00 0.00 0.00 96 1012.3
20200218131504 66 142 1.0 3.0 0.00 0.00 0.00 96 1012.4
20200218131003 66 150 1.0 3.0 0.00 0.00 0.00 96 1012.1
20200218130503 66 151 0.0 2.0 0.00 0.00 0.00 96 1012.2
20200218130003 66 0 0.0 2.0 0.00 0.00 0.00 96 1012.0
20200218125504 66 0 0.0 1.0 0.00 0.00 0.00 96 1012.1
20200218125003 66 0 0.0 0.0 0.00 0.00 0.00 96 1012.1
20200218124503 66 0 0.0 0.0 0.00 0.00 0.00 95 1012.2
20200218124004 66 0 0.0 1.0 0.00 0.00 0.00 95 1012.1
20200218123503 66 0 0.0 2.0 0.00 0.00 0.00 96 1012.1
20200218123004 66 0 0.0 2.0 0.00 0.00 0.00 95 1012.0
20200218122504 66 0 0.0 2.0 0.00 0.00 0.00 95 1012.0
20200218122003 66 0 0.0 2.0 0.00 0.00 0.00 95 1011.9
20200218121503 66 0 0.0 0.0 0.00 0.00 0.00 95 1012.1
20200218121004 66 0 0.0 0.0 0.00 0.00 0.00 95 1012.0
20200218120503 66 0 0.0 0.0 0.00 0.00 0.00 95 1012.0
20200218120004 66 0 0.0 0.0 0.00 0.00 0.00 95 1011.9
20200218115503 66 0 0.0 0.0 0.00 0.00 0.00 95 1011.7
20200218115002 66 0 0.0 0.0 0.00 0.00 0.00 95 1011.5
20200218114503 66 0 0.0 0.0 0.00 0.00 0.00 95 1011.5
20200218114003 66 0 0.0 0.0 0.00 0.00 0.00 95 1011.6
20200218113503 66 0 0.0 0.0 0.00 0.00 0.00 95 1011.5
20200218113004 66 0 0.0 0.0 0.00 0.00 0.00 95 1011.5
20200218112503 66 0 0.0 0.0 0.00 0.00 0.00 95 1011.4
20200218112004 66 0 0.0 0.0 0.00 0.00 0.00 95 1011.3
20200218111504 66 0 0.0 0.0 0.00 0.00 0.00 95 1011.1
20200218111003 66 0 0.0 0.0 0.00 0.00 0.00 95 1010.9
20200218110503 66 0 0.0 0.0 0.00 0.00 0.00 95 1010.9
20200218110004 66 0 0.0 0.0 0.00 0.00 0.00 95 1010.8
20200218105503 66 0 0.0 1.0 0.00 0.00 0.00 95 1010.8
20200218105004 66 0 0.0 1.0 0.00 0.00 0.00 95 1010.9
20200218104503 66 0 0.0 0.0 0.00 0.00 0.00 94 1010.7
20200218104004 66 0 0.0 0.0 0.00 0.00 0.00 94 1010.9
20200218103503 66 0 0.0 1.0 0.00 0.00 0.00 94 1011.0
20200218103003 66 241 0.0 1.0 0.00 0.00 0.00 94 1011.1
20200218102503 66 241 0.0 2.0 0.00 0.00 0.00 94 1011.0
20200218102003 66 234 0.0 3.0 0.00 0.00 0.00 94 1010.8
20200218101503 67 227 1.0 3.0 0.00 0.00 0.00 94 1010.6
20200218101003 66 200 1.0 2.0 0.00 0.00 0.00 94 1010.3
20200218100502 67 206 1.0 4.0 0.00 0.00 0.00 94 1010.0
20200218100004 67 203 1.0 4.0 0.00 0.00 0.00 94 1010.1
20200218095503 67 186 2.0 5.0 0.00 0.00 0.00 94 1010.1
20200218095004 67 179 2.0 5.0 0.00 0.00 0.00 94 1010.0
20200218094504 67 185 2.0 5.0 0.00 0.00 0.00 94 1009.8